DE-0383 weather

UL-Gelände Bredstedt
Bredstedt, Schleswig-Holstein, Germany

Public forecast

Using degrees Celsius for public forecast. Weather courtesy of forecast.io.

METAR (pilot weather report)

Closest report is Schleswig Air Base, 21.2 nm (39.3 km) ESE. Retrieved 2019/08/21 06:20 UTC (0 seconds ago):

ETNS 210620Z 24007KT 9999 FEW020 SCT060 14/12 Q1026 BLU+BLU+ TEMPO WHT

TAF (pilot weather forecast)

Forecast is more than 12 hours old.

Closest forecast is Schleswig Air Base, 21.2 nm (39.3 km) ESE. Retrieved 2019/01/28 18:31 UTC (7 months ago):

TAF ETNS 281725Z 2818/2909 33010G20KT 5000 BR SCT005 SCT018 BKN040 TEMPO 2818/2819 34010KT 1600 SN BKN003 BECMG 2818/2820 33010G20KT 9999 NSW FEW010 BKN025 TEMPO 2820/2824 34010G20KT 5000 BR BKN015 BY ETGL